Weather in Kulevatovo

Russia / Tambov Oblast     53°11′13″N   41°35′34″E
temp.,
°C
wind,
m/s
gust,
m/s
humid.,
%
clouds,
%
prec.,
mm/h
press.,
hPa
HPBL,
m
25 february, thu
thu2500:00−17s4896100 0.4 1035335
03:00−15ssw51094100 0.6 1032398
06:00−14ssw51095100 0.6 1028420
09:00−11ssw61195100 1.8 1025429
12:00−7sw71195100 2.1 1021509
15:00−2sw71396100 4.6 1017458
18:00+2w61399100 1.1 1015374
21:00+2wnw51199100 1.1 1015347
26 february, fri
fri2600:00+1wnw4999100 0.0 1015299
03:00+1w3699100 0.0 1015208
06:00+1w49100100 0.1 1014241
09:00+1w51199100 0.4 1013295
12:00+2w512100100 0.1 1011303
15:00+2wsw614100100 0.2 1010413
18:00+2wsw71599100 0.3 1007437
21:00+2w71598100 0.4 1006496
27 february, sat
sat2700:00+2w7149292 0.0 1005517
03:00+1w7149096 0.0 1005519
06:00+1w61397100 0.1 1004691
09:00+1w61197100 0.1 1004595
12:00+1w61298100 0.0 1003649
15:00+1w7139999 0.1 1003700
18:000wnw71394100 0.2 1003786
21:00−4nnw51092100 1.0 1006624
28 february, sun
sun2800:00−9nnw499392 0.0 1008305
03:00−11nnw499551 0.0 1010270
06:00−12nnw379647 0.0 1012206
09:00−11nnw489256 0.0 1014394
12:00−9nnw479093 0.0 1015478
15:00−7nnw478997 0.1 1016546
18:00−8nnw3795100 0.1 1017224
21:00−8nnw3795100 0.1 1020246
1 march, mon
mon100:00−10nnw359585 0.1 1022101
03:00−11nnw359685 0.1 1023119
06:00−12nnw389646 0.0 1025176
09:00−11n489332 0.0 1027299
12:00−8nnw359375 0.0 1028350
15:00−6nw369387 0.0 1027392
18:00−8wnw349599 0.0 102755
21:00−6wsw489398 0.1 1027236